Time,TemperatureF,DewpointF,PressureIn,WindDirection,WindDirectionDegrees,WindSpeedMPH,WindSpeedGustMPH,Humidity,HourlyPrecipIn,Conditions,Clouds,dailyrainin,SoftwareType,DateUTC
2013-07-13 00:10:00,68.0,62.0,30.18,North,351,0.0,1.0,82,0.00,,,0.00,weatherlink.com 1.10,2013-07-13 04:10:00,
2013-07-13 00:25:00,67.9,63.0,30.18,NNW,338,0.0,1.0,83,0.00,,,0.00,weatherlink.com 1.10,2013-07-13 04:25:00,
2013-07-13 00:40:00,67.9,63.0,30.18,NNW,344,0.0,1.0,83,0.00,,,0.00,weatherlink.com 1.10,2013-07-13 04:40:00,
2013-07-13 00:55:00,67.8,63.0,30.18,NNW,340,0.0,1.0,83,0.00,,,0.00,weatherlink.com 1.10,2013-07-13 04:55:00,
2013-07-13 01:10:00,67.7,63.0,30.18,NW,323,0.0,1.0,84,0.00,,,0.00,weatherlink.com 1.10,2013-07-13 05:10:00,
2013-07-13 01:25:00,67.6,63.0,30.18,NNE,26,0.0,1.0,84,0.00,,,0.00,weatherlink.com 1.10,2013-07-13 05:25:00,
2013-07-13 01:40:00,67.5,63.0,30.18,NNW,341,0.0,1.0,85,0.00,,,0.00,weatherlink.com 1.10,2013-07-13 05:40:00,
2013-07-13 01:55:00,67.3,63.0,30.19,NNE,21,0.0,4.0,85,0.00,,,0.00,weatherlink.com 1.10,2013-07-13 05:55:00,
2013-07-13 02:10:00,67.2,63.0,30.19,NNE,13,0.0,1.0,86,0.00,,,0.00,weatherlink.com 1.10,2013-07-13 06:10:00,
2013-07-13 02:25:00,67.1,63.0,30.19,WNW,288,0.0,1.0,86,0.00,,,0.00,weatherlink.com 1.10,2013-07-13 06:25:00,
2013-07-13 02:40:00,67.1,63.0,30.19,NNW,346,0.0,2.0,87,0.00,,,0.00,weatherlink.com 1.10,2013-07-13 06:40:00,
2013-07-13 02:55:00,67.1,63.0,30.19,NNW,340,0.0,2.0,87,0.00,,,0.00,weatherlink.com 1.10,2013-07-13 06:55:00,
2013-07-13 03:10:00,67.1,63.0,30.19,NNW,338,0.0,2.0,87,0.00,,,0.00,weatherlink.com 1.10,2013-07-13 07:10:00,
2013-07-13 03:25:00,67.1,64.0,30.20,NNE,27,0.0,3.0,88,0.00,,,0.00,weatherlink.com 1.10,2013-07-13 07:25:00,
2013-07-13 03:40:00,67.2,64.0,30.21,NNE,16,0.0,1.0,88,0.00,,,0.00,weatherlink.com 1.10,2013-07-13 07:40:00,
2013-07-13 03:55:00,67.2,64.0,30.21,West,279,0.0,1.0,88,0.00,,,0.00,weatherlink.com 1.10,2013-07-13 07:55:00,
2013-07-13 04:10:00,67.1,63.0,30.21,North,5,1.0,2.0,87,0.00,,,0.00,weatherlink.com 1.10,2013-07-13 08:10:00,
2013-07-13 04:25:00,67.0,63.0,30.21,NNW,337,0.0,3.0,87,0.00,,,0.00,weatherlink.com 1.10,2013-07-13 08:25:00,
2013-07-13 04:40:00,67.0,63.0,30.21,NNE,28,0.0,5.0,88,0.00,,,0.00,weatherlink.com 1.10,2013-07-13 08:40:00,
2013-07-13 04:55:00,66.9,63.0,30.22,East,85,0.0,3.0,88,0.00,,,0.00,weatherlink.com 1.10,2013-07-13 08:55:00,
2013-07-13 05:10:00,66.9,63.0,30.22,NNW,341,2.0,4.0,88,0.00,,,0.00,weatherlink.com 1.10,2013-07-13 09:10:00,
2013-07-13 05:25:00,66.8,63.0,30.23,NE,52,0.0,3.0,88,0.00,,,0.00,weatherlink.com 1.10,2013-07-13 09:25:00,
2013-07-13 05:40:00,66.8,63.0,30.23,NNE,19,0.0,3.0,88,0.00,,,0.00,weatherlink.com 1.10,2013-07-13 09:40:00,
2013-07-13 05:55:00,66.8,63.0,30.24,NE,51,1.0,3.0,88,0.00,,,0.00,weatherlink.com 1.10,2013-07-13 09:55:00,
2013-07-13 06:10:00,66.9,63.0,30.24,North,350,1.0,3.0,88,0.00,,,0.00,weatherlink.com 1.10,2013-07-13 10:10:00,
2013-07-13 06:25:00,66.9,63.0,30.24,NNW,330,0.0,2.0,87,0.00,,,0.00,weatherlink.com 1.10,2013-07-13 10:25:00,
2013-07-13 06:40:00,67.0,63.0,30.24,NNE,32,0.0,4.0,87,0.00,,,0.00,weatherlink.com 1.10,2013-07-13 10:40:00,
2013-07-13 06:55:00,66.8,63.0,30.25,East,84,0.0,3.0,88,0.00,,,0.00,weatherlink.com 1.10,2013-07-13 10:55:00,
2013-07-13 07:10:00,66.9,63.0,30.25,North,5,0.0,1.0,88,0.00,,,0.00,weatherlink.com 1.10,2013-07-13 11:10:00,
2013-07-13 07:25:00,67.5,64.0,30.25,East,90,0.0,1.0,87,0.00,,,0.00,weatherlink.com 1.10,2013-07-13 11:25:00,
2013-07-13 07:40:00,68.1,64.0,30.26,WNW,301,0.0,1.0,86,0.00,,,0.00,weatherlink.com 1.10,2013-07-13 11:40:00,
2013-07-13 07:55:00,68.4,64.0,30.27,NNW,348,0.0,3.0,86,0.00,,,0.00,weatherlink.com 1.10,2013-07-13 11:55:00,
2013-07-13 08:10:00,68.2,64.0,30.28,SE,138,0.0,5.0,87,0.00,,,0.00,weatherlink.com 1.10,2013-07-13 12:10:00,
2013-07-13 08:25:00,67.7,64.0,30.28,ENE,57,0.0,3.0,88,0.00,,,0.00,weatherlink.com 1.10,2013-07-13 12:25:00,
2013-07-13 08:40:00,67.2,64.0,30.28,NNW,338,0.0,3.0,89,0.00,,,0.00,weatherlink.com 1.10,2013-07-13 12:40:00,
2013-07-13 08:55:00,67.0,64.0,30.28,SE,133,0.0,5.0,89,0.00,,,0.00,weatherlink.com 1.10,2013-07-13 12:55:00,
2013-07-13 09:10:00,67.2,64.0,30.28,NNE,22,0.0,3.0,88,0.00,,,0.00,weatherlink.com 1.10,2013-07-13 13:10:00,
2013-07-13 09:25:00,67.9,64.0,30.28,NNW,348,0.0,2.0,88,0.00,,,0.00,weatherlink.com 1.10,2013-07-13 13:25:00,
2013-07-13 09:40:00,69.5,65.0,30.27,NNE,19,0.0,2.0,86,0.00,,,0.00,weatherlink.com 1.10,2013-07-13 13:40:00,
2013-07-13 09:55:00,69.9,65.0,30.28,SE,128,2.0,3.0,85,0.00,,,0.00,weatherlink.com 1.10,2013-07-13 13:55:00,
2013-07-13 10:11:00,70.3,66.0,30.28,SSE,147,0.0,4.0,85,0.00,,,0.00,weatherlink.com 1.10,2013-07-13 14:11:00,
2013-07-13 10:26:00,71.0,66.0,30.28,NNE,30,1.0,2.0,85,0.00,,,0.00,weatherlink.com 1.10,2013-07-13 14:26:00,
2013-07-13 10:41:00,71.5,66.0,30.29,ESE,122,0.0,3.0,83,0.00,,,0.00,weatherlink.com 1.10,2013-07-13 14:41:00,
2013-07-13 10:56:00,71.7,67.0,30.29,SE,126,2.0,3.0,84,0.00,,,0.00,weatherlink.com 1.10,2013-07-13 14:56:00,
2013-07-13 11:11:00,72.4,67.0,30.29,East,88,0.0,3.0,84,0.00,,,0.00,weatherlink.com 1.10,2013-07-13 15:11:00,
2013-07-13 11:26:00,73.2,67.0,30.29,NNE,19,1.0,3.0,82,0.00,,,0.00,weatherlink.com 1.10,2013-07-13 15:26:00,
2013-07-13 11:41:00,73.9,68.0,30.29,SSW,207,0.0,4.0,81,0.00,,,0.00,weatherlink.com 1.10,2013-07-13 15:41:00,
2013-07-13 11:56:00,74.9,68.0,30.28,SE,131,1.0,5.0,79,0.00,,,0.00,weatherlink.com 1.10,2013-07-13 15:56:00,
2013-07-13 12:11:00,75.2,68.0,30.28,ESE,102,0.0,3.0,79,0.00,,,0.00,weatherlink.com 1.10,2013-07-13 16:11:00,
2013-07-13 12:26:00,75.6,69.0,30.28,SE,134,0.0,4.0,79,0.00,,,0.00,weatherlink.com 1.10,2013-07-13 16:26:00,
2013-07-13 12:41:00,76.0,68.0,30.29,NNE,23,0.0,3.0,77,0.00,,,0.00,weatherlink.com 1.10,2013-07-13 16:41:00,
2013-07-13 12:56:00,75.6,69.0,30.29,ESE,122,0.0,3.0,79,0.00,,,0.00,weatherlink.com 1.10,2013-07-13 16:56:00,
2013-07-13 13:11:00,75.3,68.0,30.29,ESE,115,0.0,3.0,77,0.00,,,0.00,weatherlink.com 1.10,2013-07-13 17:11:00,
2013-07-13 13:26:00,75.7,68.0,30.28,NNW,339,1.0,4.0,77,0.00,,,0.00,weatherlink.com 1.10,2013-07-13 17:26:00,
2013-07-13 13:41:00,76.8,69.0,30.28,SE,140,0.0,3.0,76,0.00,,,0.00,weatherlink.com 1.10,2013-07-13 17:41:00,
2013-07-13 13:56:00,77.4,69.0,30.28,NNW,339,0.0,4.0,74,0.00,,,0.00,weatherlink.com 1.10,2013-07-13 17:56:00,
2013-07-13 14:11:00,77.1,68.0,30.28,ESE,104,0.0,4.0,74,0.00,,,0.00,weatherlink.com 1.10,2013-07-13 18:11:00,
2013-07-13 14:26:00,76.9,68.0,30.29,West,271,0.0,3.0,75,0.00,,,0.00,weatherlink.com 1.10,2013-07-13 18:26:00,
2013-07-13 14:41:00,77.5,69.0,30.28,WNW,284,0.0,2.0,74,0.00,,,0.00,weatherlink.com 1.10,2013-07-13 18:41:00,
2013-07-13 14:56:00,78.2,69.0,30.28,SE,134,0.0,3.0,73,0.00,,,0.00,weatherlink.com 1.10,2013-07-13 18:56:00,
2013-07-13 15:11:00,78.5,69.0,30.28,NNW,342,1.0,2.0,73,0.00,,,0.00,weatherlink.com 1.10,2013-07-13 19:11:00,
2013-07-13 15:26:00,78.5,70.0,30.28,ESE,117,0.0,3.0,74,0.00,,,0.00,weatherlink.com 1.10,2013-07-13 19:26:00,
2013-07-13 15:41:00,78.0,70.0,30.27,ESE,118,2.0,6.0,75,0.00,,,0.00,weatherlink.com 1.10,2013-07-13 19:41:00,
2013-07-13 15:56:00,78.1,69.0,30.27,ESE,105,1.0,4.0,74,0.00,,,0.00,weatherlink.com 1.10,2013-07-13 19:56:00,
2013-07-13 16:11:00,77.3,69.0,30.27,ENE,67,0.0,4.0,75,0.00,,,0.00,weatherlink.com 1.10,2013-07-13 20:11:00,
2013-07-13 16:26:00,77.2,70.0,30.27,SSE,149,3.0,3.0,77,0.00,,,0.00,weatherlink.com 1.10,2013-07-13 20:26:00,
2013-07-13 16:41:00,76.9,69.0,30.27,SE,129,0.0,3.0,77,0.00,,,0.00,weatherlink.com 1.10,2013-07-13 20:41:00,
2013-07-13 16:56:00,77.4,69.0,30.27,ESE,113,1.0,6.0,76,0.00,,,0.00,weatherlink.com 1.10,2013-07-13 20:56:00,
2013-07-13 17:11:00,76.6,69.0,30.26,ESE,109,1.0,5.0,78,0.00,,,0.00,weatherlink.com 1.10,2013-07-13 21:11:00,
2013-07-13 17:26:00,76.7,70.0,30.27,ESE,123,1.0,4.0,79,0.00,,,0.00,weatherlink.com 1.10,2013-07-13 21:26:00,
2013-07-13 17:41:00,76.9,70.0,30.26,ESE,121,0.0,3.0,79,0.00,,,0.00,weatherlink.com 1.10,2013-07-13 21:41:00,
2013-07-13 17:56:00,76.3,70.0,30.26,ESE,117,2.0,2.0,80,0.00,,,0.00,weatherlink.com 1.10,2013-07-13 21:56:00,
2013-07-13 18:11:00,76.2,70.0,30.27,SE,130,0.0,1.0,80,0.00,,,0.00,weatherlink.com 1.10,2013-07-13 22:11:00,
2013-07-13 18:26:00,76.2,70.0,30.27,ESE,121,3.0,3.0,81,0.00,,,0.00,weatherlink.com 1.10,2013-07-13 22:26:00,
2013-07-13 18:41:00,75.5,69.0,30.27,ESE,109,0.0,3.0,80,0.00,,,0.00,weatherlink.com 1.10,2013-07-13 22:41:00,
2013-07-13 18:56:00,74.8,68.0,30.28,SE,132,0.0,4.0,80,0.00,,,0.00,weatherlink.com 1.10,2013-07-13 22:56:00,
2013-07-13 19:11:00,74.2,68.0,30.28,NW,311,0.0,3.0,80,0.00,,,0.00,weatherlink.com 1.10,2013-07-13 23:11:00,
2013-07-13 19:26:00,73.5,68.0,30.28,ENE,65,0.0,2.0,82,0.00,,,0.00,weatherlink.com 1.10,2013-07-13 23:26:00,
2013-07-13 19:41:00,72.9,68.0,30.28,NNW,343,0.0,1.0,84,0.00,,,0.00,weatherlink.com 1.10,2013-07-13 23:41:00,
2013-07-13 19:56:00,72.1,68.0,30.29,NNW,342,0.0,1.0,87,0.00,,,0.00,weatherlink.com 1.10,2013-07-13 23:56:00,
2013-07-13 20:11:00,71.5,68.0,30.28,NNW,344,0.0,1.0,89,0.01,,,0.01,weatherlink.com 1.10,2013-07-14 00:11:00,
2013-07-13 20:26:00,71.3,69.0,30.29,NNE,30,0.0,1.0,91,0.05,,,0.05,weatherlink.com 1.10,2013-07-14 00:26:00,
2013-07-13 20:41:00,70.7,68.0,30.29,NNE,30,0.0,1.0,92,0.05,,,0.05,weatherlink.com 1.10,2013-07-14 00:41:00,
2013-07-13 20:56:00,70.5,68.0,30.29,NNE,30,0.0,1.0,93,0.04,,,0.05,weatherlink.com 1.10,2013-07-14 00:56:00,
2013-07-13 21:11:00,70.5,68.0,30.29,NNE,30,0.0,0.0,93,0.04,,,0.05,weatherlink.com 1.10,2013-07-14 01:11:00,
2013-07-13 21:26:00,70.4,68.0,30.28,NE,51,0.0,0.0,93,0.00,,,0.05,weatherlink.com 1.10,2013-07-14 01:26:00,
2013-07-13 21:41:00,70.3,68.0,30.28,NE,53,0.0,0.0,93,0.00,,,0.05,weatherlink.com 1.10,2013-07-14 01:41:00,
2013-07-13 21:56:00,70.1,68.0,30.28,NE,53,0.0,0.0,94,0.00,,,0.05,weatherlink.com 1.10,2013-07-14 01:56:00,
2013-07-13 22:11:00,69.9,68.0,30.28,NE,53,0.0,0.0,94,0.00,,,0.05,weatherlink.com 1.10,2013-07-14 02:11:00,
2013-07-13 22:26:00,69.9,68.0,30.28,NE,52,0.0,0.0,94,0.00,,,0.05,weatherlink.com 1.10,2013-07-14 02:26:00,
2013-07-13 22:41:00,69.7,68.0,30.28,NE,53,0.0,0.0,94,0.00,,,0.05,weatherlink.com 1.10,2013-07-14 02:41:00,
2013-07-13 22:56:00,69.4,68.0,30.27,NE,52,0.0,0.0,94,0.00,,,0.05,weatherlink.com 1.10,2013-07-14 02:56:00,
2013-07-13 23:11:00,69.4,68.0,30.28,WNW,286,0.0,1.0,94,0.00,,,0.05,weatherlink.com 1.10,2013-07-14 03:11:00,
2013-07-13 23:26:00,69.3,68.0,30.28,WNW,287,0.0,0.0,94,0.00,,,0.05,weatherlink.com 1.10,2013-07-14 03:26:00,
2013-07-13 23:41:00,69.4,68.0,30.29,WNW,287,0.0,0.0,95,0.00,,,0.05,weatherlink.com 1.10,2013-07-14 03:41:00,
2013-07-13 23:56:00,69.6,68.0,30.28,WNW,285,0.0,0.0,95,0.00,,,0.05,weatherlink.com 1.10,2013-07-14 03:56:00,